Location: Sevilla
(37.3933°N, 5.9839°W)
Time: 05:41:19
(UTC+02:00)

Transit 2A Rocket - Pass Details

Date: 27 June 2024
Orbit: 582 x 910 km, 66.7° (Epoch: 15 July)

Event Time Altitude Azimuth Distance (km) Brightness Sun altitude
Rises 22:45:53 0° 261° (W) 3,154 8.8 -10.1°
Reaches altitude 10° 22:49:23 10° 287° (WNW) 2,311 8.7 -10.6°
Maximum altitude 22:52:09 14° 318° (NW) 2,096 8.7 -11.0°
Drops below altitude 10° 22:55:01 10° 349° (N) 2,429 8.4 -11.5°
Sets 22:58:53 0° 14° (NNE) 3,435 8.8 -12.0°
